Regional Weather Roundup
Issued by NWS

Home | Current Version | Previous Version | Text Only | Print | Product List | Glossary On
Versions: 1 2 3 4 5 6 7 8 9 10 11 12 13 14 15 16 17 18 19 20 21 22 23 24 25 26 27 28 29 30 31 32 33 34 35 36 37 38 39 40 41 42 43 44 45 46 47 48 49 50
000
ASUS43 KLOT 280612
RWRIL

ILLINOIS REGIONAL WEATHER ROUNDUP
NATIONAL WEATHER SERVICE CHICAGO/ROMEOVILLE IL
100 AM CDT SAT MAR 28 2015

NOTE: "FAIR" INDICATES FEW OR NO CLOUDS BELOW 12,000 FEET WITH NO
SIGNIFICANT WEATHER AND/OR OBSTRUCTIONS TO VISIBILITY.

* THESE STATIONS ARE NOT UNDER NWS QUALITY CONTROL. THEY ALSO MAY NOT
  REPORT WEATHER SUCH AS PRECIPITATION OR FOG.

ILZ001-002-007-009-015-016-024-280700-
NORTHWEST ILLINOIS

CITY           SKY/WX    TMP DP  RH WIND       PRES   REMARKS
MOLINE         CLEAR     23  13  65 CALM      30.21S
6HR MIN TEMP:  20; 6HR MAX TEMP:  35;

STERLING*      CLEAR     23  16  74 E7        30.23R WCI  15
SAVANNA*       CLEAR     20  15  79 N3        30.22S
$$

ILZ003-004-008-010-011-017-018-280700-
NORTH CENTRAL ILLINOIS

CITY           SKY/WX    TMP DP  RH WIND       PRES   REMARKS
ROCKFORD       CLEAR     22  14  71 CALM      30.25S
6HR MIN TEMP:  22; 6HR MAX TEMP:  31;

FREEPORT*      CLEAR     17  13  82 SE6       30.24R WCI   9
ROCHELLE*      CLEAR     20  16  82 CALM      30.24S
DE KALB*       CLEAR     18  14  83 CALM      30.22S
PERU*          CLEAR     23  17  77 E3        30.24S
$$

ILZ005-006-012>014-019>023-280700-
NORTHEAST ILLINOIS

CITY           SKY/WX    TMP DP  RH WIND       PRES   REMARKS
CHICAGO-OHARE  PTCLDY    22  14  71 N6        30.21S WCI  14
6HR MIN TEMP:  22; 6HR MAX TEMP:  26;

CHICAGO-MIDWAY PTCLDY    27  14  58 N7        30.22S WCI  19
6HR MIN TEMP:  26; 6HR MAX TEMP:  27;

AURORA         CLEAR     18  13  80 NW3       30.23S
6HR MIN TEMP:  17; 6HR MAX TEMP:  31;

LANSING*       CLEAR     25   7  46 NE12G17   30.21S WCI  14
JOLIET*        CLEAR     23  16  77 CALM      30.23S
WAUKEGAN       CLEAR     19  14  81 NW5       30.22R WCI  12
6HR MIN TEMP:  18; 6HR MAX TEMP:  23;

DUPAGE AIRPORT FAIR      19  12  74 N5        30.21S WCI  12
6HR MIN TEMP:  18; 6HR MAX TEMP:  27;

KANKAKEE*      CLEAR     23  17  77 NW3       30.22S
WHEELING       CLEAR     20  13  74 NW3       30.24R
6HR MIN TEMP:  20; 6HR MAX TEMP:  25;

MORRIS*        CLEAR     19  15  84 CALM      30.23R
ROMEOVILLE*    CLEAR     22  14  69 N3        30.22S
NORTHERLY ISL    N/A     26  11  52 N16         N/A  WCI  14
$$

LMZ740>746-280700-
SOUTHERN LAKE MICHIGAN

STATION/POSITION SKY/WX   TEMP    WIND        PRES    VSBY  WAVE
                          AIR SEA DIR/SP/G                  HT/PER
                          (F)     (DEG/KT/KT) (MB)    (MI)  (FT/S)
HARRISON CRIB              26      10/ 17/ 21   N/A
BURNHAM HARBOR             26      10/ 11/ 16   N/A
CALUMET HARBOR             26      10/ 14/ 20 1022.0S
BURNS HARBOR               26      30/ 15/ 20 1023.4R
MICHIGAN CITY              24     360/ 19/ 22   N/A
$$

ILZ025>027-034>036-040-047-049-050-058-095>099-280700-
WEST-CENTRAL ILLINOIS

CITY           SKY/WX    TMP DP  RH WIND       PRES   REMARKS
QUINCY         MOCLDY    30  12  47 E7        30.19S WCI  23
GALESBURG*     PTCLDY    24  15  70 CALM      30.20F
MACOMB*        PTCLDY    24  18  77 E5        30.23S WCI  18
JACKSONVILLE*  CLEAR     26  20  80 E3        30.20F
PITTSFIELD*    PTCLDY    30  21  69 CALM      30.21S
$$

ILZ028>032-037-038-041>044-048-051>054-059>061-280700-
CENTRAL ILLINOIS

CITY           SKY/WX    TMP DP  RH WIND       PRES   REMARKS
PONTIAC        CLEAR     22  19  87 CALM      30.24R
BLOOMINGTON    CLEAR     21  17  84 E7        30.22S WCI  12
DECATUR        CLEAR     23  17  78 E9        30.21S WCI  13
PEORIA         FAIR      25  13  60 CALM      30.22S
6HR MIN TEMP:  25; 6HR MAX TEMP:  34;

LACON*         CLEAR     23  15  72 E7        30.23S WCI  14
LINCOLN*       CLEAR     25  18  76 NE7       30.24R WCI  17
SPRINGFIELD    CLEAR     26  16  65 CALM      30.22S
6HR MIN TEMP:  25; 6HR MAX TEMP:  36;

TAYLORVILLE    CLEAR     28  21  74 NE3       30.21S
$$

ILZ033-039-045-046-055>057-062-063-280700-
EAST-CENTRAL ILLINOIS

CITY           SKY/WX    TMP DP  RH WIND       PRES   REMARKS
CHAMPAIGN      CLEAR     22  15  75 NE9       30.21S WCI  12
DANVILLE*      CLEAR     20  16  84 N6        30.19S WCI  13
RANTOUL*       CLEAR     24  17  74 NE6       30.21S WCI  17
MATTOON        CLEAR     24  17  74 NE6       30.20R WCI  17
PARIS*         CLEAR     24  18  77 N3        30.22S
$$

ILZ079-100>102-280700-
SOUTHWEST ILLINOIS

CITY           SKY/WX    TMP DP  RH WIND       PRES   REMARKS
ALTON          CLEAR     29  23  80 CALM      30.21S
BELLEVILLE     CLEAR     28  21  74 N2        30.20S
CAHOKIA*       CLEAR     30  22  72 CALM      30.21F
SPARTA*        CLEAR     28  22  79 CALM      30.21S
$$

ILZ064>066-069>071-074>076-080>082-084>086-088>090-092>094-280700-
SOUTH-CENTRAL ILLINOIS

CITY           SKY/WX    TMP DP  RH WIND       PRES   REMARKS
CARBONDALE     CLEAR     28  23  81 N3        30.20F
6HR MIN TEMP:  27; 6HR MAX TEMP:  37;

CAIRO*         PTCLDY    30  25  80 CALM      30.20S
EFFINGHAM*     CLEAR     28  17  63 N3        30.22R
MARION         CLEAR     28  23  80 CALM      30.21S
MT. VERNON     CLEAR     25  18  74 CALM      30.21S
CENTRALIA*     CLEAR     28  20  73 CALM      30.20S
SALEM*         CLEAR     29  24  82 CALM      30.21S
METROPOLIS*    CLEAR     31  23  72 N3        30.19S
$$

ILZ067-068-072-073-078-083-087-091-280700-
SOUTHEAST ILLINOIS

CITY           SKY/WX    TMP DP  RH WIND       PRES   REMARKS
LAWRENCEVILLE  CLEAR     27  19  72 NE6       30.21S WCI  20
FLORA*         CLEAR     27  21  77 NW3       30.21S
FAIRFIELD*     CLEAR     27  22  81 CALM      30.19F
HARRISBURG*    CLEAR     29  21  69 N5        30.22S WCI  24
ROBINSON*      CLEAR     25  18  72 NE8       30.22S WCI  17
CARMI*         CLEAR     28  19  70 N5        30.20S WCI  23
$$

ABBREVIATIONS USED IN REMARKS
   TC - TEMPERATURE IN CELSIUS
  WCI - WIND CHILL INDEX
   HX - HEAT INDEX
  VSB - VISIBILITY
$$




USA.gov is the U.S. government's official web portal to all federal, state and local government web resources and services.